McConnell AFB, KS

3:09 PM CST on December 15, 2019 (GMT -0600)
McConnell Air Force Base

Weather History for KIAB - June, 2019

Change the Weather History Date:

Tuesday, June 11, 2019

  Actual Average Record
Temperature  
Mean Temperature 70 °F -  
Max Temperature 80 °F 81 °F 95 °F (2004)
Min Temperature 59 °F 61 °F 59 °F (2019)
Cooling Degree Days 4    
Growing Degree Days 20 (Base 50)    
Moisture  
Dew Point 49 °F    
Average Humidity 47    
Maximum Humidity 60    
Minimum Humidity 32    
Precipitation  
Precipitation 0.00 in - - ()
Sea Level Pressure  
Sea Level Pressure 30.08 in    
Wind  
Wind Speed 10 mph (SE)    
Max Wind Speed 18 mph    
Max Gust Speed 25 mph    
Visibility 10 miles    
Events Rain , Thunderstorm    
Averages and records for this station are not official NWS values.
T = Trace of Precipitation, MM = Missing Value Source: NWS Daily Summary

Daily Weather History Graph

Daily Weather History Graph

Search for Another Location

Airport or City:

Astronomy

Jun. 11, 2019 Rise Set
Actual Time 6:07 AM CDT 8:50 PM CDT
Civil Twilight 5:36 AM CDT 9:21 PM CDT
Nautical Twilight 4:57 AM CDT 10:00 PM CDT
Astronomical Twilight 4:13 AM CDT 10:44 PM CDT
Moon 2:59 PM CDT (6/11) 2:43 AM CDT (6/11)
Length of Visible Light 15h 45m
Length of Day
14h 43m
Waxing Gibbous, 66% of the Moon is Illuminated
Jun 11
Waxing Gibbous
Jun 17
Full
Jun 25
Last Quarter
Jul 2
New
Jul 9
First Quarter

Hourly Weather History & Observations

Time (CDT) Temp. Dew Point Humidity Pressure Visibility Wind Dir Wind Speed Gust Speed Precip Events Conditions
12:56 AM 64.4 °F 44.2 °F 48% 30.23 in 10.0 mi East 5.8 mph - N/A   Clear
1:56 AM 63.3 °F 43.9 °F 49% 30.23 in 10.0 mi East 5.8 mph - N/A   Partly Cloudy
2:56 AM 62.6 °F 43.7 °F 50% 30.22 in 10.0 mi East 5.8 mph - N/A   Clear
3:56 AM 61.3 °F 44.6 °F 54% 30.21 in 10.0 mi East 5.8 mph - N/A   Clear
4:56 AM 60.6 °F 44.8 °F 56% 30.18 in 10.0 mi ESE 5.8 mph - N/A   Clear
5:56 AM 59.2 °F 43.9 °F 57% 30.19 in 10.0 mi ESE 8.1 mph - N/A   Clear
6:56 AM 60.6 °F 43.3 °F 53% 30.19 in 10.0 mi East 6.9 mph - N/A   Clear
7:56 AM 63.1 °F 46.8 °F 55% 30.18 in 10.0 mi ESE 8.1 mph - N/A   Clear
8:56 AM 67.6 °F 47.8 °F 49% 30.19 in 10.0 mi SE 15.0 mph - N/A   Clear
9:24 AM 69.8 °F 48.2 °F 46% 30.18 in 10.0 mi South 15.0 mph 19.6 mph N/A   Clear
9:56 AM 71.4 °F 48.4 °F 44% 30.17 in 10.0 mi South 13.8 mph - N/A   Clear
10:56 AM 72.9 °F 45.7 °F 38% 30.14 in 10.0 mi South 18.4 mph 25.3 mph N/A   Clear
11:56 AM 74.5 °F 45.7 °F 36% 30.12 in 10.0 mi South 16.1 mph - N/A   Clear
12:56 PM 76.5 °F 46.8 °F 35% 30.09 in 10.0 mi SSW 13.8 mph 20.7 mph N/A   Partly Cloudy
12:57 PM 77.0 °F 46.4 °F 34% 30.09 in 10.0 mi South 18.4 mph 20.7 mph N/A   Partly Cloudy
1:56 PM 78.3 °F 48.4 °F 35% 30.05 in 10.0 mi South 13.8 mph 25.3 mph N/A   Partly Cloudy
2:56 PM 78.8 °F 48.0 °F 34% 30.03 in 10.0 mi South 11.5 mph - N/A   Partly Cloudy
3:56 PM 79.9 °F 47.3 °F 32% 30.00 in 10.0 mi South 15.0 mph - N/A   Clear
4:56 PM 80.1 °F 50.0 °F 35% 29.97 in 10.0 mi South 15.0 mph 20.7 mph N/A   Clear
5:56 PM 77.9 °F 49.5 °F 37% 29.97 in 10.0 mi South 10.4 mph - N/A   Mostly Cloudy
6:56 PM 76.8 °F 51.3 °F 41% 29.98 in 10.0 mi SSE 10.4 mph - N/A   Overcast
7:56 PM 75.9 °F 53.1 °F 45% 29.96 in 10.0 mi ESE 9.2 mph - N/A   Overcast
8:56 PM 72.9 °F 53.1 °F 50% 29.98 in 10.0 mi ESE 8.1 mph - N/A   Overcast
9:38 PM 71.6 °F 53.6 °F 53% 29.97 in 10.0 mi East 8.1 mph - N/A Rain Light Rain
9:49 PM 71.6 °F 55.4 °F 57% 29.98 in 10.0 mi ENE 9.2 mph - N/A Thunderstorm Mostly Cloudy
9:56 PM 71.1 °F 55.6 °F 58% 29.97 in 10.0 mi East 11.5 mph - 0.00 in   Mostly Cloudy
10:56 PM 69.3 °F 54.7 °F 60% 29.95 in 10.0 mi ESE 11.5 mph - N/A   Clear
11:55 PM 69.8 °F 55.4 °F 60% 30.01 in 10.0 mi NNE 15.0 mph - N/A Rain Light Rain
11:56 PM 70.3 °F 54.9 °F 58% 30.01 in 10.0 mi NNE 15.0 mph - 0.00 in Rain Light Rain